KE7YUP Weather Reports


time (UTC)temp
C
wind
direction
speed
KPH
gust
KPH
rain 1hr
cm
rain 24hr
cm
rain mn
cm
humidity
%
barometer
mb
20260508161416 18 139 3.2 4.8 0.00 0.00 0.00 40 1020.5
20260508160416 18 149 4.8 11.3 0.00 0.00 0.00 41 1020.2
20260508155416 18 102 4.8 9.7 0.00 0.00 0.00 41 1020.2
20260508154436 17 88 1.6 6.4 0.00 0.00 0.00 43 1020.3
20260508153416 17 159 0.0 1.6 0.00 0.00 0.00 44 1019.9
20260508152416 16 84 3.2 6.4 0.00 0.00 0.00 47 1019.9
20260508151416 16 149 1.6 4.8 0.00 0.00 0.00 48 1020.3
20260508150436 16 117 4.8 8.0 0.00 0.00 0.00 48 1020.2
20260508145416 16 116 4.8 6.4 0.00 0.00 0.00 49 1020.2
20260508144415 16 111 6.4 9.7 0.00 0.00 0.00 48 1020.1
20260508143416 16 150 4.8 8.0 0.00 0.00 0.00 48 1020.2
20260508142415 16 142 1.6 1.6 0.00 0.00 0.00 45 1020.2
20260508141416 15 151 1.6 3.2 0.00 0.00 0.00 49 1020.4
20260508140415 15 308 0.0 1.6 0.00 0.00 0.00 50 1020.2
20260508135415 15 0.0 0.0 0.00 0.00 0.00 45 1020.1
20260508134416 13 309 1.6 3.2 0.00 0.00 0.00 45 1020.0
20260508133436 12 309 0.0 3.2 0.00 0.00 0.00 53 1019.6
20260508132415 12 309 0.0 1.6 0.00 0.00 0.00 50 1019.3
20260508131416 11 0.0 0.0 0.00 0.00 0.00 51 1018.7
20260508130415 11 309 1.6 3.2 0.00 0.00 0.00 49 1018.9
20260508125415 11 309 0.0 3.2 0.00 0.00 0.00 48 1018.9
20260508124416 12 309 3.2 6.4 0.00 0.00 0.00 46 1018.6
20260508123415 12 355 3.2 4.8 0.00 0.00 0.00 45 1018.6
20260508122415 12 335 6.4 8.0 0.00 0.00 0.00 45 1018.4
20260508121415 12 275 4.8 6.4 0.00 0.00 0.00 45 1018.6
20260508120415 12 296 1.6 4.8 0.00 0.00 0.00 46 1018.7
20260508115416 11 296 1.6 6.4 0.00 0.00 0.00 47 1018.3
20260508114415 11 279 3.2 3.2 0.00 0.00 0.00 46 1018.2
20260508113415 12 279 1.6 4.8 0.00 0.00 0.00 47 1018.5
20260508112435 13 325 1.6 4.8 0.00 0.00 0.00 46 1018.6
20260508111435 13 349 4.8 6.4 0.00 0.00 0.00 46 1018.7
20260508110415 12 114 1.6 3.2 0.00 0.00 0.00 46 1018.7
20260508105415 12 297 0.0 1.6 0.00 0.00 0.00 46 1018.7
20260508104415 12 331 4.8 8.0 0.00 0.00 0.00 46 1018.3
20260508103415 13 0.0 0.0 0.00 0.00 0.00 43 1018.6
20260508102415 16 149 3.2 4.8 0.00 0.00 0.00 37 1019.3
20260508101435 16 14 4.8 8.0 0.00 0.00 0.00 38 1019.2
20260508100416 16 263 1.6 4.8 0.00 0.00 0.00 36 1019.2
20260508095435 17 162 3.2 4.8 0.00 0.00 0.00 35 1019.5
20260508094441 17 338 8.0 9.7 0.00 0.00 0.00 33 1019.5
20260508093816 17 355 12.9 20.9 0.00 0.00 0.00 32 1019.4
20260508092816 17 359 14.5 22.5 0.00 0.00 0.00 32 1019.0
20260508091816 18 344 11.3 14.5 0.00 0.00 0.00 31 1019.1
20260508090816 17 3 12.9 17.7 0.00 0.00 0.00 33 1019.1
20260508085816 15 330 9.7 14.5 0.00 0.00 0.00 37 1018.6
20260508084816 15 305 8.0 12.9 0.00 0.00 0.00 38 1018.7
20260508083816 15 310 12.9 16.1 0.00 0.00 0.00 38 1018.7
20260508082816 16 301 8.0 12.9 0.00 0.00 0.00 37 1018.8
20260508081816 15 322 3.2 6.4 0.00 0.00 0.00 39 1018.5
20260508080816 14 322 3.2 4.8 0.00 0.00 0.00 40 1018.2
20260508075816 14 322 1.6 1.6 0.00 0.00 0.00 40 1018.2
20260508074816 15 322 4.8 6.4 0.00 0.00 0.00 40 1018.6
20260508073816 15 298 3.2 4.8 0.00 0.00 0.00 39 1018.6
20260508072836 15 241 6.4 8.0 0.00 0.00 0.00 39 1018.6
20260508071815 15 301 1.6 4.8 0.00 0.00 0.00 38 1018.6
20260508070836 16 301 3.2 8.0 0.00 0.00 0.00 37 1018.7
20260508065816 16 319 9.7 14.5 0.00 0.00 0.00 37 1018.6
20260508064815 16 328 9.7 14.5 0.00 0.00 0.00 36 1018.6
20260508063815 16 317 14.5 16.1 0.00 0.00 0.00 37 1018.6
20260508062816 16 320 11.3 14.5 0.00 0.00 0.00 35 1018.2
20260508061815 17 320 16.1 17.7 0.00 0.00 0.00 34 1018.5
20260508060815 17 319 8.0 11.3 0.00 0.00 0.00 34 1018.4
20260508055816 17 321 6.4 8.0 0.00 0.00 0.00 34 1018.0
20260508054817 17 321 3.2 4.8 0.00 0.00 0.00 34 1018.1
20260508053817 17 327 9.7 12.9 0.00 0.00 0.00 33 1018.1
20260508052816 17 319 12.9 14.5 0.00 0.00 0.00 33 1017.7
20260508051817 17 309 11.3 14.5 0.00 0.00 0.00 34 1017.8
20260508050816 17 313 1.6 4.8 0.00 0.00 0.00 34 1017.9
20260508045837 16 355 6.4 8.0 0.00 0.00 0.00 36 1017.1
20260508044817 17 327 3.2 4.8 0.00 0.00 0.00 34 1017.4
20260508043816 16 339 6.4 8.0 0.00 0.00 0.00 37 1017.1
20260508042816 17 344 6.4 8.0 0.00 0.00 0.00 35 1016.9
20260508041816 18 333 1.6 4.8 0.00 0.00 0.00 33 1017.3
20260508040816 17 322 8.0 14.5 0.00 0.00 0.00 33 1017.4
20260508035817 17 328 6.4 12.9 0.00 0.00 0.00 33 1017.0
20260508034837 17 310 9.7 14.5 0.00 0.00 0.00 33 1016.9
20260508033817 17 317 6.4 9.7 0.00 0.00 0.00 34 1016.9
20260508032816 17 320 9.7 14.5 0.00 0.00 0.00 35 1016.8
20260508031837 17 337 6.4 8.0 0.00 0.00 0.00 34 1016.8
20260508030817 18 343 9.7 14.5 0.00 0.00 0.00 32 1017.1
20260508025816 18 355 8.0 9.7 0.00 0.00 0.00 31 1016.7
20260508024816 18 358 8.0 8.0 0.00 0.00 0.00 31 1016.5
20260508023817 19 10 6.4 9.7 0.00 0.00 0.00 30 1016.5
20260508022837 19 37 3.2 8.0 0.00 0.00 0.00 31 1016.5
20260508021816 19 35 6.4 12.9 0.00 0.00 0.00 30 1016.4
20260508020837 20 67 3.2 6.4 0.00 0.00 0.00 30 1016.4
20260508015816 20 40 8.0 8.0 0.00 0.00 0.00 29 1016.4
20260508014816 20 66 4.8 8.0 0.00 0.00 0.00 29 1016.4
20260508013816 21 69 3.2 6.4 0.00 0.00 0.00 28 1016.8
20260508012816 21 69 6.4 8.0 0.00 0.00 0.00 27 1016.4
20260508011816 21 64 4.8 6.4 0.00 0.00 0.00 28 1016.5
20260508010816 21 101 4.8 9.7 0.00 0.00 0.00 28 1016.8
20260508005836 21 72 6.4 9.7 0.00 0.00 0.00 28 1017.0
20260508004816 21 101 4.8 12.9 0.00 0.00 0.00 27 1017.0
20260508003816 21 68 8.0 9.7 0.00 0.00 0.00 27 1017.1
20260508002816 22 84 6.4 11.3 0.00 0.00 0.00 26 1017.1
20260508001816 22 18 4.8 11.3 0.00 0.00 0.00 25 1017.3
20260508000816 21 15 3.2 14.5 0.00 0.00 0.00 27 1017.5
20260507235816 21 41 12.9 19.3 0.00 0.00 0.00 27 1017.6
20260507234816 22 353 9.7 17.7 0.00 0.00 0.00 27 1017.7
20260507233816 21 69 9.7 14.5 0.00 0.00 0.00 26 1017.7
20260507232816 21 39 11.3 19.3 0.00 0.00 0.00 26 1017.7
20260507231816 22 32 9.7 14.5 0.00 0.00 0.00 25 1018.1
20260507230816 22 43 9.7 16.1 0.00 0.00 0.00 25 1018.2
20260507225816 22 38 16.1 22.5 0.00 0.00 0.00 25 1018.3
20260507224816 22 60 8.0 16.1 0.00 0.00 0.00 25 1018.3
20260507223836 22 152 8.0 16.1 0.00 0.00 0.00 24 1018.2
20260507222816 22 158 8.0 14.5 0.00 0.00 0.00 25 1018.5
20260507221816 22 149 12.9 14.5 0.00 0.00 0.00 25 1018.9
20260507220816 22 152 6.4 11.3 0.00 0.00 0.00 25 1019.3
20260507215816 21 86 8.0 16.1 0.00 0.00 0.00 26 1019.1
20260507214816 21 154 11.3 16.1 0.00 0.00 0.00 25 1019.1
20260507213816 21 137 8.0 14.5 0.00 0.00 0.00 25 1019.3
20260507212816 21 73 8.0 12.9 0.00 0.00 0.00 27 1019.5
20260507211816 21 66 9.7 16.1 0.00 0.00 0.00 27 1019.7
20260507210816 20 88 14.5 19.3 0.00 0.00 0.00 26 1019.8
20260507205836 20 44 6.4 12.9 0.00 0.00 0.00 26 1020.0
20260507204816 20 80 11.3 16.1 0.00 0.00 0.00 26 1020.2
20260507203815 20 124 9.7 16.1 0.00 0.00 0.00 26 1020.3
20260507202816 20 97 14.5 19.3 0.00 0.00 0.00 27 1020.2
20260507201836 20 141 12.9 17.7 0.00 0.00 0.00 27 1020.2
20260507200816 19 105 11.3 14.5 0.00 0.00 0.00 27 1020.5
20260507195816 20 90 9.7 16.1 0.00 0.00 0.00 27 1020.5
20260507194815 20 118 8.0 14.5 0.00 0.00 0.00 27 1020.6
20260507193815 19 106 11.3 14.5 0.00 0.00 0.00 27 1020.7
20260507192816 19 121 8.0 16.1 0.00 0.00 0.00 26 1021.0
20260507191815 18 84 12.9 19.3 0.00 0.00 0.00 27 1020.8
20260507190816 18 106 12.9 17.7 0.00 0.00 0.00 27 1021.0
20260507185816 18 67 9.7 17.7 0.00 0.00 0.00 28 1021.6
20260507184815 18 107 8.0 12.9 0.00 0.00 0.00 27 1021.7
20260507183815 18 75 9.7 14.5 0.00 0.00 0.00 27 1021.9
20260507182815 17 102 8.0 12.9 0.00 0.00 0.00 28 1021.9
20260507181816 17 88 11.3 17.7 0.00 0.00 0.00 28 1022.1
20260507180815 17 106 4.8 12.9 0.00 0.00 0.00 29 1022.2
20260507175856 16 119 6.4 12.9 0.00 0.00 0.00 29 1022.1
20260507174835 16 115 6.4 17.7 0.00 0.00 0.00 29 1022.3
20260507173815 16 131 9.7 16.1 0.00 0.00 0.00 30 1022.3
20260507172815 16 119 9.7 16.1 0.00 0.00 0.00 28 1021.5
20260507171835 15 69 9.7 12.9 0.00 0.00 0.00 32 1021.6
20260507170815 15 86 11.3 16.1 0.00 0.00 0.00 35 1021.6
20260507165815 14 106 8.0 14.5 0.00 0.00 0.00 36 1022.5
20260507164835 13 117 3.2 11.3 0.00 0.00 0.00 41 1022.6
20260507163815 13 108 4.8 6.4 0.00 0.00 0.00 44 1022.8
20260507162815 13 132 3.2 9.7 0.00 0.00 0.00 46 1022.8